COSMOS 2251 DEB, 35032

Orbit data source: Space-Track

COSMOS 2251 DEB, 35032 is space debris in LEO originally from a launch on Wed, 16 Jun 1993 UTC launched from the Plesetsk Missile And Space Complex (PKMTR). The debris from Iridium 33, an American commercial communications satellite, has been tracked extensively since its accidental collision with the defunct Russian satellite Cosmos 2251 in 2009. This event, occurring at high speed in low Earth orbit (LEO), generated thousands of pieces of space debris, significantly increasing the risk of further collisions. The Iridium 33 debris cloud has impacted space traffic management and orbital debris mitigation strategies, making it a subject of ongoing study in space situational awareness.

Loading next visibility...
Identifier
35032, 1993-036AGV
Orbit
LEO
Country
Flag of CISCIS
Related business
Manufacturer
Unknown
Mission
Spacecraft
Bus & Motor
Unknown
Mass
Unknown
Launch date (UTC)
1993-06-16 (33 years ago)
Launch vehicle
Unknown
Launch site
Plesetsk Missile And Space Complex (PKMTR)
Object type
Payload
Rocket body
Debris
Shape & HBR
Unknown shape, 0.1 m
Radar Cross Section
Medium (>0.1 m² and <1 m²)

Expand to show TLE details & history
Last TLE update: 11 hours ago

TLE from 11 hours ago
0 COSMOS 2251 DEB
1 35032U 93036AGV 26165.33275294  .00003227  00000-0  65663-3 0  9992
2 35032  73.8508  13.2329 0066364 184.5062 353.7912 14.60120008903528
Epoch: 2026-06-14T07:59Z
TLE epoch observation values (Epoch: 2026-06-14T07:59:09.854Z)
Latitude
1.61306°
Longitude
170.34216°
Altitude
648.567 km
Speed
7.559 km/s
True Right ascension
12h 51m 04s
True Declination
1° 36' 12"
Sunlit
Object was in daylight at epoch
Visualization orbit readout
Latitude
Unknown
Longitude
Unknown
Altitude
Unknown
Speed
Unknown
Apparent Right ascension
Unknown
Apparent Declination
Unknown
Sunlit
N/A
Visualization observer readout
Local Sidereal Time
05:55:09
Azimuth
Unknown
Elevation
Unknown
Doppler factor
Unknown
Orbital elements
Apogee altitude
737.309 km
Perigee altitude
643.49 km
Semi-major axis
7,068.537 km
Eccentricity
0.00664
Inclination
73.8508°
RAAN
13.2329°
Arg. of periapsis
184.5062°
True anomaly
353.70827°
Mean anomaly
353.7912°
Eccentric anomaly
353.7498°
Mean motion
3.65215 °/min
Orbital period
98.57 mins
BSTAR
0.00065663
Loading maneuver chart data...
Computing Atmospheric mass density...

Documentation

Showing up to 5 results
|